NKS303 KEWR-KDTW

Flight info

Callsign NKS303
Flight time N/A
Altitude 36000
Route GAYEL J95 CFB TRAAD JACCI FERRL2
Aircraft A20N/M-SDE2E3FGHIRWXY/LB1

Departure

Time 2026-05-06 05:46
Airport Newark Liberty International Airport (KEWR)

Arrival

Time N/A
Airport Detroit Metropolitan Wayne County Airport (KDTW)
Time Latitude Longitude Altitude Speed Heading
2026-05-06 05:15 40.69715 -74.17481 15 ft 0 kts 304°
2026-05-06 05:33 40.69713 -74.17477 15 ft 2 kts 305°
2026-05-06 05:34 40.69704 -74.17461 15 ft 2 kts 323°
2026-05-06 05:34 40.69691 -74.17452 15 ft 2 kts 341°
2026-05-06 05:34 40.69676 -74.17448 15 ft 2 kts
2026-05-06 05:34 40.69661 -74.17451 15 ft 2 kts 20°
2026-05-06 05:35 40.69648 -74.17459 15 ft 0 kts 37°
2026-05-06 05:35 40.69643 -74.17464 15 ft 1 kts 42°
2026-05-06 05:35 40.69642 -74.17466 15 ft 0 kts 41°
2026-05-06 05:38 40.69646 -74.17462 15 ft 1 kts 41°
2026-05-06 05:38 40.69658 -74.17448 15 ft 3 kts 40°
2026-05-06 05:38 40.69678 -74.17426 15 ft 4 kts 39°
2026-05-06 05:39 40.69717 -74.17385 15 ft 11 kts 39°
2026-05-06 05:39 40.69783 -74.17312 15 ft 12 kts 44°
2026-05-06 05:39 40.69847 -74.17229 15 ft 13 kts 51°
2026-05-06 05:39 40.69832 -74.17123 15 ft 13 kts 140°
2026-05-06 05:40 40.69746 -74.17070 15 ft 14 kts 169°
2026-05-06 05:40 40.69655 -74.17037 15 ft 12 kts 158°
2026-05-06 05:40 40.69632 -74.16959 15 ft 10 kts 70°
2026-05-06 05:40 40.69671 -74.16875 15 ft 11 kts 28°
2026-05-06 05:41 40.69749 -74.16827 15 ft 12 kts 25°
2026-05-06 05:41 40.69833 -74.16778 15 ft 13 kts 14°
2026-05-06 05:41 40.69930 -74.16769 15 ft 14 kts
2026-05-06 05:41 40.70032 -74.16760 15 ft 14 kts
2026-05-06 05:42 40.70137 -74.16743 15 ft 15 kts
2026-05-06 05:42 40.70244 -74.16727 15 ft 15 kts
2026-05-06 05:42 40.70298 -74.16640 15 ft 14 kts 92°
2026-05-06 05:42 40.70288 -74.16503 15 ft 15 kts 95°
2026-05-06 05:43 40.70278 -74.16362 15 ft 15 kts 94°
2026-05-06 05:43 40.70272 -74.16215 15 ft 16 kts 94°
2026-05-06 05:43 40.70263 -74.16066 15 ft 16 kts 108°
2026-05-06 05:43 40.70254 -74.15918 15 ft 16 kts 85°
2026-05-06 05:44 40.70260 -74.15766 15 ft 16 kts 87°
2026-05-06 05:44 40.70225 -74.15698 16 ft 3 kts 192°
2026-05-06 05:44 40.70228 -74.15724 15 ft 4 kts 291°
2026-05-06 05:44 40.70245 -74.15766 15 ft 5 kts 300°
2026-05-06 05:45 40.70248 -74.15823 15 ft 7 kts 246°
2026-05-06 05:45 40.70204 -74.15869 15 ft 11 kts 207°
2026-05-06 05:45 40.70003 -74.16000 16 ft 65 kts 206°
2026-05-06 05:45 40.69361 -74.16410 16 ft 136 kts 206°
2026-05-06 05:46 40.68385 -74.17018 321 ft 165 kts 206°
2026-05-06 05:46 40.67338 -74.17670 1032 ft 171 kts 207°
2026-05-06 05:46 40.66312 -74.18450 1727 ft 180 kts 220°
2026-05-06 05:46 40.65294 -74.19655 1960 ft 213 kts 226°
2026-05-06 05:47 40.64212 -74.21060 2636 ft 228 kts 227°
2026-05-06 05:47 40.63059 -74.22567 3472 ft 237 kts 229°
2026-05-06 05:47 40.62213 -74.24359 4412 ft 239 kts 251°
2026-05-06 05:47 40.61790 -74.26461 5378 ft 242 kts 256°
2026-05-06 05:48 40.61510 -74.28626 6287 ft 248 kts 266°
2026-05-06 05:48 40.61893 -74.30859 7184 ft 261 kts 294°
2026-05-06 05:48 40.63105 -74.32677 8065 ft 276 kts 320°
2026-05-06 05:48 40.64854 -74.33768 8912 ft 289 kts 336°
2026-05-06 05:49 40.66845 -74.34420 9627 ft 299 kts 344°
2026-05-06 05:49 40.68904 -74.34912 10482 ft 303 kts 345°
2026-05-06 05:49 40.71019 -74.35402 11035 ft 318 kts 345°
2026-05-06 05:49 40.73241 -74.35931 11566 ft 332 kts 345°
2026-05-06 05:50 40.75528 -74.36490 12349 ft 337 kts 345°
2026-05-06 05:50 40.77820 -74.37056 13184 ft 340 kts 345°
2026-05-06 05:50 40.80154 -74.37638 14001 ft 343 kts 344°
2026-05-06 05:50 40.82486 -74.38226 14780 ft 346 kts 345°
2026-05-06 05:51 40.84859 -74.38828 15538 ft 349 kts 345°
2026-05-06 05:51 40.87249 -74.39437 16274 ft 353 kts 345°
2026-05-06 05:51 40.89655 -74.40051 16984 ft 357 kts 345°
2026-05-06 05:51 40.92098 -74.40675 17691 ft 360 kts 345°
2026-05-06 05:52 40.94563 -74.41305 18397 ft 362 kts 345°
2026-05-06 05:52 40.97022 -74.41934 19065 ft 365 kts 345°
2026-05-06 05:52 40.99544 -74.42580 19706 ft 369 kts 345°
2026-05-06 05:52 41.02080 -74.43231 20351 ft 373 kts 345°
2026-05-06 05:53 41.04603 -74.43877 20977 ft 376 kts 345°
2026-05-06 05:53 41.07184 -74.44540 21584 ft 380 kts 345°
2026-05-06 05:53 41.09790 -74.45210 22184 ft 384 kts 345°
2026-05-06 05:53 41.12413 -74.45883 22780 ft 387 kts 345°
2026-05-06 05:54 41.15059 -74.46566 23363 ft 391 kts 346°
2026-05-06 05:54 41.17742 -74.47257 23950 ft 394 kts 346°
2026-05-06 05:54 41.20449 -74.47956 24503 ft 397 kts 346°
2026-05-06 05:54 41.23150 -74.48653 25029 ft 401 kts 346°
2026-05-06 05:55 41.25932 -74.49371 25548 ft 405 kts 346°
2026-05-06 05:55 41.28756 -74.50102 26069 ft 409 kts 346°
2026-05-06 05:55 41.31631 -74.50848 26575 ft 413 kts 346°
2026-05-06 05:55 41.34507 -74.51593 27058 ft 416 kts 346°
2026-05-06 05:56 41.37413 -74.52346 27525 ft 420 kts 346°
2026-05-06 05:56 41.39948 -74.53004 27917 ft 423 kts 346°
2026-05-06 05:56 41.42729 -74.53725 28305 ft 427 kts 346°
2026-05-06 05:56 41.45604 -74.54608 28642 ft 428 kts 338°
2026-05-06 05:57 41.48278 -74.56341 29005 ft 425 kts 323°
2026-05-06 05:57 41.50490 -74.58868 29385 ft 422 kts 308°
2026-05-06 05:57 41.52203 -74.62086 29748 ft 419 kts 297°
2026-05-06 05:57 41.53676 -74.65533 30115 ft 421 kts 295°
2026-05-06 05:58 41.55135 -74.69028 30487 ft 423 kts 295°
2026-05-06 05:58 41.56602 -74.72512 30988 ft 422 kts 296°
2026-05-06 05:58 41.58066 -74.75951 31448 ft 421 kts 296°
2026-05-06 05:58 41.59541 -74.79396 31944 ft 419 kts 296°
2026-05-06 05:59 41.61003 -74.82803 32393 ft 417 kts 296°
2026-05-06 05:59 41.62194 -74.85577 32758 ft 416 kts 296°
2026-05-06 05:59 41.63461 -74.88535 33162 ft 414 kts 296°
2026-05-06 05:59 41.64889 -74.91879 33578 ft 413 kts 296°
2026-05-06 06:00 41.66299 -74.95183 33972 ft 412 kts 296°
2026-05-06 06:00 41.67724 -74.98525 34343 ft 411 kts 296°
2026-05-06 06:00 41.69126 -75.01821 34653 ft 412 kts 296°
2026-05-06 06:00 41.70530 -75.05135 34944 ft 413 kts 296°
2026-05-06 06:01 41.71946 -75.08472 35269 ft 413 kts 296°
2026-05-06 06:01 41.73364 -75.11810 35588 ft 412 kts 296°
2026-05-06 06:01 41.74768 -75.15132 35837 ft 413 kts 296°
2026-05-06 06:01 41.76189 -75.18494 35836 ft 413 kts 296°
2026-05-06 06:02 41.78997 -75.25138 35838 ft 411 kts 296°
2026-05-06 06:02 41.81801 -75.31790 35840 ft 410 kts 296°
2026-05-06 06:03 41.84597 -75.38445 35829 ft 410 kts 296°
2026-05-06 06:03 41.87260 -75.44797 35829 ft 408 kts 296°
2026-05-06 06:04 41.90054 -75.51484 35828 ft 408 kts 296°
2026-05-06 06:04 41.92831 -75.58137 35816 ft 406 kts 296°
2026-05-06 06:05 41.95572 -75.64712 35819 ft 406 kts 296°
2026-05-06 06:05 41.96963 -75.68050 35680 ft 405 kts 296°
2026-05-06 06:05 41.98342 -75.71365 35754 ft 406 kts 296°
2026-05-06 06:06 42.01080 -75.77962 35805 ft 404 kts 296°
2026-05-06 06:06 42.03799 -75.84530 35807 ft 403 kts 296°
2026-05-06 06:07 42.06384 -75.90794 35802 ft 403 kts 296°
2026-05-06 06:07 42.09091 -75.97369 35817 ft 401 kts 296°
2026-05-06 06:08 42.11776 -76.03930 35816 ft 399 kts 294°
2026-05-06 06:08 42.14048 -76.10696 35819 ft 396 kts 288°
2026-05-06 06:09 42.15668 -76.17755 35813 ft 393 kts 281°
2026-05-06 06:09 42.16615 -76.24982 35811 ft 391 kts 275°
2026-05-06 06:10 42.17185 -76.32220 35809 ft 391 kts 275°
2026-05-06 06:10 42.17745 -76.39542 35806 ft 389 kts 275°
2026-05-06 06:11 42.18292 -76.46775 35797 ft 389 kts 275°
2026-05-06 06:11 42.18835 -76.54010 35775 ft 389 kts 275°
2026-05-06 06:12 42.19374 -76.61260 35776 ft 389 kts 275°
2026-05-06 06:12 42.19900 -76.68387 35775 ft 387 kts 275°
2026-05-06 06:13 42.20427 -76.75591 35772 ft 387 kts 275°
2026-05-06 06:13 42.20950 -76.82812 35776 ft 387 kts 275°
2026-05-06 06:14 42.21466 -76.89995 35773 ft 386 kts 275°
2026-05-06 06:14 42.21981 -76.97207 35773 ft 385 kts 275°
2026-05-06 06:15 42.22489 -77.04384 35788 ft 385 kts 275°
2026-05-06 06:15 42.22991 -77.11561 35773 ft 384 kts 275°
2026-05-06 06:16 42.23487 -77.18735 35796 ft 385 kts 275°
2026-05-06 06:16 42.23981 -77.25917 35783 ft 384 kts 275°
2026-05-06 06:17 42.24467 -77.33089 35782 ft 385 kts 275°
2026-05-06 06:17 42.24951 -77.40296 35767 ft 384 kts 275°
2026-05-06 06:18 42.25430 -77.47430 35758 ft 384 kts 275°
2026-05-06 06:18 42.26237 -77.54552 35759 ft 385 kts 281°
2026-05-06 06:19 42.27478 -77.61643 35762 ft 386 kts 282°
2026-05-06 06:19 42.28743 -77.68662 35768 ft 385 kts 281°
2026-05-06 06:20 42.30001 -77.75651 35765 ft 385 kts 281°
2026-05-06 06:20 42.31263 -77.82699 35755 ft 385 kts 281°
2026-05-06 06:21 42.32515 -77.89716 35761 ft 386 kts 281°
2026-05-06 06:21 42.33759 -77.96709 35761 ft 386 kts 281°
2026-05-06 06:22 42.35009 -78.03772 35768 ft 385 kts 281°
2026-05-06 06:22 42.36247 -78.10792 35757 ft 384 kts 281°
2026-05-06 06:23 42.37485 -78.17839 35757 ft 384 kts 281°
2026-05-06 06:23 42.38721 -78.24892 35765 ft 383 kts 281°
2026-05-06 06:24 42.39942 -78.31903 35761 ft 382 kts 281°
2026-05-06 06:24 42.41152 -78.38875 35749 ft 381 kts 281°
2026-05-06 06:25 42.42357 -78.45845 35748 ft 381 kts 281°
2026-05-06 06:26 42.44148 -78.56263 35740 ft 380 kts 281°
2026-05-06 06:26 42.45336 -78.63223 35744 ft 381 kts 281°
2026-05-06 06:27 42.46465 -78.70250 35743 ft 380 kts 277°
2026-05-06 06:27 42.47113 -78.77284 35738 ft 378 kts 272°
2026-05-06 06:28 42.47375 -78.84367 35737 ft 377 kts 271°
2026-05-06 06:28 42.47618 -78.91449 35733 ft 378 kts 271°
2026-05-06 06:29 42.47838 -78.98176 35734 ft 377 kts 271°